RH
68 82 96 102 105 104 100 100 100 99 100 100 99 101 100 100 100 100 100 101 101 103 104 104 103 102 97 90 86 84 81 79 79 77 76 75 73 73 73 73 76 79 81 83 87 96 98 86 77 82 90 98 102 103 107 108 104 105 108 103 101 102 102 99 98 101 104 102 93 82 80 85 90 97 101 94 85 73 64 69 77 77 78 81 80 74 68
75 85 96 102 105 104 100 100 100 99 100 100 100 101 100 101 101 100 100 101 102 104 106 104 102 100 96 90 84 79 76 74 71 69 67 65 64 64 62 62 64 65 68 70 71 76 82 84 84 84 89 100 105 103 105 107 102 102 104 101 100 100 99 99 99 102 105 101 92 85 84 86 92 101 102 91 83 74 63 72 92 98 96 90 80 79 88
83 92 102 106 107 105 101 100 100 100 100 100 100 100 100 101 101 101 102 104 105 107 106 103 101 99 96 91 86 81 78 76 73 71 70 67 66 66 64 63 63 62 63 63 61 63 69 77 79 77 84 99 106 105 104 103 101 102 101 98 100 101 99 100 101 103 106 100 92 92 94 94 100 107 96 79 75 73 68 81 101 101 95 92 84 84 96
93 99 103 104 106 106 102 100 101 101 100 100 100 101 100 101 101 102 103 103 104 105 103 100 99 98 96 95 92 88 85 82 79 77 75 73 72 71 69 69 69 70 70 69 68 69 68 69 71 73 80 91 101 106 106 101 100 102 100 99 101 100 99 101 103 104 104 98 92 94 97 98 101 102 90 76 73 75 82 97 103 95 93 95 94 97 100
102 103 101 101 103 103 101 101 101 100 100 100 100 100 100 101 101 100 102 102 102 104 104 103 104 103 102 101 99 96 94 90 86 83 79 77 75 74 73 72 71 71 72 72 72 73 73 76 80 83 86 91 98 105 105 101 101 101 100 100 101 100 100 101 102 106 106 103 102 101 98 97 96 92 88 82 75 78 94 106 101 96 99 99 97 101 101
104 102 100 99 100 100 100 100 100 100 100 100 100 103 105 103 100 100 102 103 103 104 105 107 108 105 102 102 101 101 100 96 91 86 81 78 75 72 70 69 69 69 71 73 75 80 84 87 91 94 97 99 100 102 102 100 100 100 100 100 100 101 101 100 100 103 105 107 110 106 99 95 90 85 90 92 81 78 92 104 103 100 101 101 100 100 100
101 100 100 100 100 100 100 100 100 100 101 101 102 104 103 100 102 104 106 105 104 103 102 101 101 100 100 101 101 98 95 90 85 79 74 70 66 64 62 63 64 65 69 75 83 91 96 97 99 101 101 100 99 99 100 100 100 101 101 100 100 100 100 100 101 103 105 107 107 101 95 91 85 84 98 106 93 86 95 100 102 103 99 99 101 100 100
100 100 100 100 99 100 100 100 100 100 101 101 101 102 103 104 107 107 106 105 103 101 101 102 105 106 102 98 92 86 80 74 68 62 59 56 54 54 56 58 63 69 78 87 93 98 101 102 102 101 100 100 100 99 100 100 101 101 100 100 101 101 100 100 101 105 109 106 100 94 92 91 89 91 105 112 103 99 101 93 93 104 104 99 100 101 100
100 100 100 100 100 101 100 100 100 100 100 100 103 107 109 109 108 104 102 103 104 106 110 110 106 98 89 80 72 65 59 53 51 52 51 52 55 59 65 71 78 88 97 99 99 100 102 102 100 98 99 100 99 100 100 100 101 100 100 101 101 102 105 107 106 108 108 101 94 89 88 93 102 103 104 107 105 103 100 87 85 101 106 97 98 103 102
100 100 100 100 100 100 100 100 100 100 100 101 106 109 108 108 108 105 104 107 110 109 106 97 86 74 66 58 52 49 48 50 56 64 69 73 77 80 87 93 97 102 104 101 99 101 101 100 98 96 98 99 98 101 101 100 101 100 100 101 100 101 106 108 107 107 104 97 90 83 81 92 107 109 101 101 103 99 93 81 73 86 95 90 95 105 101
100 100 100 100 100 100 101 100 99 102 105 108 109 110 108 107 107 106 107 110 107 97 85 73 64 58 54 52 52 54 58 65 74 82 89 96 98 97 100 103 102 102 102 100 101 103 101 101 101 100 100 101 100 101 100 98 96 92 91 93 93 93 97 98 98 99 97 90 81 79 85 95 104 105 99 98 97 90 85 76 69 77 84 80 90 107 107
100 100 100 100 100 99 99 101 106 109 112 111 109 108 107 107 107 106 105 100 88 75 66 60 57 59 63 67 71 73 78 86 93 96 98 101 101 100 100 101 100 99 100 100 100 99 97 97 98 96 95 94 92 92 90 87 82 78 79 81 80 82 85 85 84 82 80 76 72 76 90 100 104 106 105 98 85 74 73 72 70 79 82 76 83 99 105
100 100 100 99 100 102 105 109 110 108 106 106 105 105 108 112 110 104 94 82 70 63 64 68 72 78 84 86 89 93 97 101 103 103 102 102 102 102 102 102 99 95 93 93 91 88 85 83 82 80 77 75 75 74 72 69 67 67 68 67 66 68 69 69 71 70 69 71 74 78 86 93 97 103 106 97 76 64 68 70 72 80 81 76 78 84 93
100 100 100 100 103 106 110 109 105 101 100 103 106 108 113 112 102 89 76 65 64 72 82 89 93 95 97 98 99 101 101 101 101 101 100 99 99 100 97 94 91 85 79 77 75 72 69 65 62 61 59 59 59 58 58 56 55 55 54 52 52 54 55 56 59 61 63 67 72 77 82 84 85 87 90 84 68 59 62 65 71 80 77 73 76 77 85
101 101 102 104 104 104 104 103 104 105 104 107 112 113 110 100 83 71 62 58 69 90 102 105 106 104 102 101 101 99 98 97 96 95 93 91 90 88 83 78 74 69 65 63 61 59 58 56 55 55 54 54 54 52 51 50 49 48 47 46 48 51 52 53 54 55 58 61 63 67 71 72 71 70 70 68 61 56 55 56 66 81 82 77 77 74 79
102 102 104 105 102 101 103 105 109 110 109 112 114 108 96 82 68 59 55 60 80 100 106 108 112 111 106 102 100 98 96 93 91 89 87 83 78 73 68 64 62 60 59 58 56 54 52 50 48 46 44 43 41 38 37 36 35 35 35 36 38 41 43 45 48 52 55 57 58 58 59 60 62 62 61 61 58 56 56 54 62 82 91 83 77 73 75
101 103 106 106 103 102 106 111 114 114 112 111 106 93 79 68 60 56 60 75 94 103 104 108 112 110 105 100 96 94 93 92 90 86 80 74 69 66 63 60 58 54 50 47 44 41 38 36 34 32 30 29 28 26 26 26 27 27 27 27 28 29 29 31 34 39 42 46 50 53 56 61 67 66 62 60 58 59 63 58 59 78 91 83 75 75 75
102 106 111 114 112 110 112 115 116 114 111 105 92 78 71 68 65 66 77 94 104 105 107 112 113 107 101 96 95 95 95 91 85 80 75 71 67 62 56 50 45 40 36 34 33 31 31 30 29 27 26 25 24 24 24 24 25 25 24 25 26 26 25 26 27 28 30 33 38 44 50 59 66 65 61 59 58 61 66 63 58 69 83 79 76 78 75
108 112 117 119 118 117 115 114 114 111 105 93 78 73 77 80 82 86 92 100 103 104 109 112 110 106 103 101 100 96 91 86 81 76 71 62 54 47 41 38 35 34 33 31 30 30 30 28 27 26 25 24 24 25 25 24 24 24 23 24 24 23 23 25 27 27 27 28 30 34 40 47 55 58 57 57 57 59 63 64 58 59 69 74 75 77 76
114 116 119 119 118 117 114 112 112 106 94 80 72 78 88 91 94 99 102 102 104 108 111 110 108 108 107 103 98 91 86 81 73 63 54 46 41 39 36 35 34 32 31 30 30 30 29 27 26 26 25 25 25 25 26 25 24 24 24 24 24 23 23 26 28 26 26 28 29 31 34 38 43 49 51 52 54 57 60 64 62 58 60 66 70 73 75
112 114 116 116 116 116 114 112 108 97 83 73 74 87 97 99 102 108 112 110 109 109 110 110 109 107 102 96 91 85 77 66 55 47 43 41 39 38 35 34 33 31 31 32 31 29 28 27 27 25 24 25 25 25 26 26 26 26 26 26 25 25 26 27 26 25 25 28 31 33 35 37 39 41 44 45 47 53 58 62 64 64 62 62 66 70 73
110 114 116 116 113 112 112 110 100 86 76 74 82 96 105 106 105 108 111 110 105 106 111 111 106 100 94 89 81 69 58 50 46 44 43 41 39 37 36 36 35 32 33 34 31 28 28 29 28 26 25 26 27 26 26 26 26 27 27 28 28 27 28 26 25 27 29 31 32 33 35 38 38 38 39 38 39 44 52 58 61 64 64 64 66 67 71
108 113 117 117 113 111 110 103 90 79 75 81 93 105 107 103 101 102 104 103 103 106 109 106 101 96 88 76 63 53 49 48 47 45 43 41 41 40 39 38 37 36 37 37 34 32 31 30 29 28 28 29 28 27 27 26 27 27 28 29 29 29 29 28 28 30 32 31 30 30 32 34 36 37 36 34 34 37 43 50 55 58 61 63 67 69 70
108 113 115 114 113 111 106 93 81 76 79 91 104 108 103 100 100 100 102 104 105 104 103 101 97 88 73 59 52 50 49 49 47 45 45 44 43 43 42 41 40 39 39 38 36 35 33 33 33 32 32 32 30 28 28 27 27 27 29 30 32 32 32 31 31 31 33 32 31 31 32 32 34 36 34 31 32 34 37 42 47 51 55 58 63 70 72
112 113 111 113 114 108 96 84 77 79 88 100 107 105 100 100 102 102 104 105 103 102 102 99 88 71 58 52 52 51 50 49 48 47 46 45 46 46 46 44 43 42 42 41 40 39 38 38 39 37 34 33 32 30 29 29 28 29 30 32 33 34 34 34 34 33 34 35 33 32 33 33 33 35 35 32 31 32 34 36 39 43 49 52 57 64 72
110 108 109 113 110 97 85 80 80 86 97 104 103 99 98 101 104 106 106 102 101 104 102 88 70 58 53 53 52 52 52 50 48 47 47 47 48 48 48 48 47 47 46 44 43 43 42 41 40 38 36 35 34 33 31 30 30 30 32 34 35 37 37 37 37 36 36 36 35 34 34 35 35 35 36 34 33 33 34 35 36 38 41 45 49 54 63
104 107 111 109 98 86 82 82 84 92 101 103 99 98 99 101 105 106 103 101 104 103 89 70 58 55 55 54 54 54 54 51 50 50 48 48 48 49 49 50 50 50 49 48 46 45 44 42 41 40 39 37 37 36 35 33 32 31 32 34 35 38 40 41 40 40 39 38 37 36 36 36 36 36 36 35 35 34 35 35 37 37 38 40 42 46 52
109 111 107 97 86 82 83 84 87 96 102 100 98 99 101 103 105 102 100 104 103 90 70 58 55 55 55 57 58 57 55 54 54 53 50 49 49 48 47 47 49 50 50 50 50 48 46 44 43 42 42 41 41 40 39 38 37 36 35 35 35 37 40 42 44 44 45 44 42 41 40 40 39 38 38 38 37 37 38 38 39 39 39 39 39 41 44
113 106 93 85 82 82 84 86 91 99 101 99 99 100 102 105 105 101 101 103 92 72 60 57 56 55 58 61 62 61 60 60 59 57 55 53 51 49 48 48 47 48 48 48 50 50 49 49 48 46 46 45 44 44 43 42 42 42 40 39 39 38 38 40 42 44 46 47 47 47 48 48 47 46 45 44 43 43 43 43 43 43 43 42 41 41 42
103 90 83 81 81 82 84 88 94 99 100 98 98 99 102 105 104 102 102 94 75 61 58 57 55 57 62 64 65 66 65 65 65 64 61 59 57 55 54 53 51 50 49 48 48 48 48 50 52 51 50 50 49 48 47 46 46 46 46 46 45 44 43 43 43 43 43 44 45 45 45 46 46 46 46 45 45 44 43 43 42 42 42 41 41 41 41
87 80 80 79 78 80 84 90 96 100 100 99 100 102 105 106 104 102 95 80 65 58 58 57 57 61 66 68 70 71 70 70 70 69 67 65 64 63 61 60 59 58 56 54 52 51 49 48 49 49 50 52 53 53 53 52 52 52 51 50 49 49 49 48 48 48 47 47 46 46 45 45 44 44 44 43 42 42 42 41 41 40 39 38 37 37 36
78 76 77 75 74 78 84 92 98 100 97 96 100 104 106 106 104 97 84 69 62 60 58 58 62 66 69 72 73 73 74 74 74 73 72 71 69 67 66 66 65 64 64 63 61 59 58 56 54 52 50 49 50 50 51 53 55 57 58 58 57 56 55 55 54 53 52 51 50 50 48 48 46 45 43 42 41 40 39 39 38 38 38 38 37 36 36
75 73 72 70 72 78 87 95 99 97 93 95 101 106 106 104 99 87 73 64 62 60 59 62 67 70 72 75 75 75 76 75 75 75 75 74 73 71 69 69 69 69 69 68 67 66 65 64 64 63 61 58 55 52 50 49 50 51 52 54 56 58 59 60 60 60 59 59 58 58 56 55 53 51 49 47 45 43 40 38 37 36 34 34 34 33 34
71 69 69 68 71 80 91 97 97 94 93 99 105 106 106 103 93 78 66 63 62 62 63 67 71 73 75 76 75 74 73 72 71 73 74 75 75 74 71 70 70 69 70 70 71 70 68 67 67 67 68 69 69 66 63 60 57 54 52 52 51 52 52 53 53 54 55 55 55 56 56 56 55 54 53 52 50 47 45 43 41 39 37 35 33 31 30
68 68 67 68 73 83 94 98 95 93 95 101 104 103 103 99 86 70 63 63 62 63 67 71 72 75 77 76 74 73 71 69 68 68 68 70 72 73 73 72 70 69 69 69 70 70 70 70 69 67 66 69 71 73 73 72 70 68 67 66 64 63 63 62 60 58 57 56 56 55 55 54 53 52 51 49 47 45 44 43 41 40 39 37 34 32 31
67 67 66 68 76 87 97 97 93 93 98 102 102 102 100 91 75 65 63 63 61 64 69 72 73 76 78 76 74 73 71 68 66 64 63 63 64 66 69 70 69 69 70 69 69 69 69 69 69 68 67 66 67 69 71 73 73 73 73 73 74 74 75 75 74 74 72 71 70 70 69 67 66 63 60 57 53 49 46 44 41 39 37 36 35 33 31
66 66 66 71 80 92 98 96 92 95 101 101 101 102 96 80 67 63 64 62 62 66 71 72 74 78 79 77 75 74 72 69 66 63 62 60 59 60 62 63 64 65 67 67 68 68 67 67 68 68 68 67 66 65 65 66 68 70 72 72 73 74 74 75 75 76 77 77 76 76 75 74 74 73 71 68 65 61 57 53 48 45 42 39 36 34 32
64 65 68 74 85 95 98 94 93 98 102 102 102 100 87 70 63 65 63 60 63 69 72 73 76 78 79 78 77 76 74 71 67 65 62 60 59 58 58 58 59 60 61 62 65 66 67 67 66 66 66 67 67 66 65 64 63 64 65 67 68 69 69 70 70 70 71 72 72 72 71 70 70 70 70 68 67 64 62 59 55 52 49 45 40 37 35
62 65 69 78 89 96 95 95 98 102 103 104 104 94 75 63 64 66 62 61 67 72 74 76 77 78 78 78 78 78 77 72 68 66 63 61 60 59 58 57 58 58 58 59 61 62 64 65 65 66 65 65 65 66 67 66 65 64 62 62 62 62 62 63 64 65 65 65 64 64 64 64 63 63 63 63 63 61 60 59 57 55 52 49 45 41 37
59 65 74 84 92 94 96 100 103 104 104 106 100 82 65 62 66 64 60 63 70 73 75 76 77 76 76 77 79 80 78 73 69 67 64 62 61 60 58 58 58 57 58 59 59 60 62 63 63 65 65 64 64 64 65 65 66 66 65 63 62 60 59 57 58 60 61 62 61 60 59 58 58 57 58 58 58 57 57 56 55 55 53 50 47 44 40
61 70 81 89 93 96 100 103 103 102 105 104 89 68 60 65 67 62 61 66 72 74 75 75 75 75 75 76 79 81 79 74 71 68 65 63 62 60 59 58 57 57 58 59 59 60 61 62 63 63 63 63 64 63 62 63 65 66 67 67 65 63 61 58 55 55 57 59 59 58 55 54 53 53 53 54 53 53 53 52 52 52 51 49 47 45 42
65 78 90 95 97 100 102 101 101 104 105 94 74 61 63 69 66 63 65 70 73 74 75 73 73 74 74 75 79 82 80 76 74 70 67 66 64 61 59 58 57 57 58 59 59 61 61 62 63 63 62 63 63 63 62 62 62 64 66 69 68 66 64 61 58 56 56 57 57 56 54 52 51 51 51 52 52 52 51 50 48 48 48 47 46 45 43
74 87 96 100 101 100 99 99 103 104 95 77 61 60 66 68 64 63 68 72 73 74 73 71 71 73 74 76 80 82 81 79 76 73 70 69 65 62 60 59 58 58 59 59 60 61 62 63 63 63 63 63 63 63 63 62 62 62 65 68 70 69 66 64 61 59 57 56 56 55 53 51 51 50 50 51 51 51 50 48 47 47 47 46 45 44 42
86 95 101 104 102 99 99 102 103 94 77 61 57 63 69 69 66 65 69 73 76 75 73 71 71 72 73 76 79 81 80 80 78 75 73 70 67 64 62 60 59 58 59 60 60 61 62 64 64 63 64 64 64 63 63 62 61 62 63 67 71 72 70 67 65 63 61 59 57 56 55 53 52 51 51 50 50 50 49 47 47 47 46 46 45 43 41
94 101 106 107 104 103 105 103 93 76 63 57 59 64 68 69 67 65 67 72 76 76 75 74 74 74 74 76 78 78 77 78 78 76 74 71 68 65 63 62 60 59 60 61 61 61 62 64 65 63 64 65 65 64 64 62 62 63 64 67 71 74 73 71 69 67 66 64 61 59 58 57 54 53 53 51 51 50 48 47 46 45 45 45 44 42 40
99 103 105 105 104 104 101 90 75 63 58 57 58 60 65 69 68 65 65 69 72 74 75 75 75 75 75 75 76 76 76 76 76 76 74 71 68 66 63 62 61 61 61 61 62 61 62 64 64 64 65 66 66 65 65 64 64 64 66 68 72 75 76 75 74 72 71 69 66 63 62 60 57 56 54 53 51 51 49 47 46 45 44 44 43 41 39
102 105 106 107 108 103 90 75 65 60 58 55 55 60 68 72 70 66 65 65 68 70 72 73 74 75 74 74 75 75 75 75 75 75 73 71 69 66 64 63 63 62 62 62 62 62 63 64 64 65 66 67 66 66 66 66 67 68 69 71 74 77 78 77 77 77 76 74 71 69 67 65 62 60 57 55 54 52 50 48 45 44 44 43 42 41 39
105 108 110 110 106 94 78 67 62 60 57 56 57 62 66 68 68 67 65 64 64 66 68 69 71 72 72 72 74 74 74 74 75 74 72 71 70 67 66 65 64 64 64 63 63 63 63 64 65 66 66 67 68 69 70 72 73 73 73 74 76 78 80 80 80 80 80 79 77 75 72 70 67 64 61 58 56 54 52 49 46 44 43 43 42 41 39
107 108 111 109 98 83 71 65 62 60 58 58 58 58 59 62 64 65 65 65 65 65 66 66 68 69 69 70 72 74 74 74 75 74 73 72 71 69 68 67 66 66 65 65 64 63 64 65 67 67 68 70 73 76 79 80 80 79 78 77 78 80 81 82 82 83 83 82 81 79 77 74 70 66 64 62 59 57 55 52 48 45 44 43 42 40 39
105 105 108 105 93 78 69 65 63 62 60 58 56 56 57 59 61 62 63 64 64 64 65 65 66 67 68 69 71 73 73 73 73 73 72 71 71 70 70 69 68 68 67 65 64 64 66 67 68 70 73 78 83 86 88 89 88 85 82 80 81 83 84 84 85 85 85 85 84 82 80 77 74 71 68 67 65 62 59 56 51 48 46 44 43 41 40
105 105 106 101 88 76 69 67 65 63 61 59 58 57 57 58 59 60 61 62 62 63 65 66 66 67 67 68 69 70 71 70 71 72 72 72 72 71 70 70 69 68 67 66 66 67 68 69 72 78 84 89 92 94 95 95 93 90 86 83 84 85 86 87 87 88 89 89 88 85 83 81 79 76 73 71 69 66 63 59 54 51 49 48 46 44 41
106 106 106 100 87 76 71 69 67 65 63 62 62 61 60 61 61 61 60 60 62 63 65 66 66 66 66 66 67 68 69 69 71 73 74 74 73 72 71 71 70 68 68 68 68 69 71 76 82 88 93 95 96 97 99 99 97 93 88 86 87 88 88 89 91 92 93 92 90 88 87 86 84 80 77 74 72 69 66 63 58 54 52 51 49 45 42
Wind_Speed
45 47 48 49 50 50 51 51 51 50 49 49 49 48 47 46 46 47 46 46 45 45 45 45 44 45 45 44 45 47 48 49 51 53 54 55 55 56 57 57 59 62 62 63 64 65 68 67 64 63 63 63 64 63 63 62 61 60 60 60 58 59 60 59 58 57 56 57 57 56 54 52 50 49 49 49 49 45 39 34 29 26 27 28 27 26 24
44 46 46 46 46 46 46 47 47 47 46 45 45 44 44 44 44 44 43 43 43 43 44 44 43 43 42 42 43 44 44 46 48 49 49 50 50 52 53 53 56 57 58 61 62 62 64 65 64 63 62 63 64 63 62 61 59 58 59 59 58 58 58 58 57 57 56 57 56 54 53 50 48 47 47 47 47 43 37 32 28 26 25 27 26 23 21
44 44 45 44 43 42 42 43 43 43 43 43 43 43 44 44 44 43 42 42 42 43 44 43 42 42 42 42 43 43 44 45 46 47 47 48 48 50 51 51 52 53 55 57 56 56 59 62 62 61 60 61 63 62 61 60 58 59 60 59 57 58 58 57 57 56 56 56 54 52 51 48 46 47 46 45 44 40 34 29 28 29 28 26 25 23 23
43 43 44 44 43 42 41 41 41 41 41 42 42 42 42 42 42 41 41 41 41 42 42 41 41 41 42 43 43 44 45 46 46 47 47 48 48 49 50 50 51 52 53 53 53 54 56 57 56 56 56 57 58 58 58 58 58 60 59 58 58 58 58 57 57 56 56 56 54 52 51 49 48 48 47 45 40 32 28 28 29 30 28 24 22 24 28
43 42 43 43 43 42 42 41 41 41 40 40 40 40 40 40 40 40 40 39 39 40 40 39 40 42 43 43 44 44 45 45 46 47 48 48 49 49 50 50 51 52 53 53 53 53 53 52 51 50 50 50 51 52 53 54 55 57 57 57 58 58 57 56 55 55 55 54 53 52 52 51 51 50 49 46 39 30 27 29 28 26 27 26 23 24 29
43 42 42 42 42 42 41 40 40 39 39 38 38 38 38 38 37 37 37 38 39 39 39 39 40 41 42 43 43 44 44 45 46 47 47 48 49 49 50 51 52 52 52 52 51 50 49 49 47 46 45 46 48 50 51 51 52 54 54 55 57 56 56 55 54 54 54 53 52 53 52 52 51 50 48 47 43 35 31 30 27 25 28 31 29 28 31
44 44 43 43 42 41 40 39 39 39 38 38 38 38 37 37 36 35 36 37 38 38 38 38 39 39 40 41 42 42 43 44 45 46 47 48 48 49 49 50 50 50 49 49 49 48 47 46 45 45 46 48 50 52 52 52 53 54 54 55 56 57 57 57 55 54 54 53 53 53 52 53 52 49 46 47 46 41 36 34 32 31 32 33 33 34 34
45 45 44 43 42 41 40 40 39 39 38 38 37 36 36 36 36 36 36 36 35 35 35 35 36 37 38 39 40 42 42 43 44 45 45 45 45 45 45 45 45 45 45 45 45 45 45 46 46 47 48 50 52 53 53 54 55 55 55 56 58 58 59 58 56 56 55 55 54 52 52 54 53 49 48 49 49 45 41 38 37 37 38 36 36 37 37
45 45 44 43 42 41 40 39 39 38 37 37 36 36 36 35 35 35 34 33 32 33 33 33 35 36 38 39 39 40 40 40 40 40 39 39 40 40 40 40 41 42 42 43 43 43 46 48 49 49 51 52 54 55 56 57 57 57 57 58 59 59 59 59 58 57 57 57 56 53 53 54 53 52 52 52 50 48 45 42 41 42 44 42 40 40 40
45 44 44 43 42 40 39 38 37 37 36 36 36 36 35 33 33 32 31 30 31 31 32 33 34 35 35 36 36 35 35 35 35 35 35 35 36 37 38 38 40 41 43 44 45 47 49 50 51 52 53 54 56 57 58 59 60 60 60 61 61 61 61 60 59 58 58 58 57 55 55 56 56 56 56 54 51 50 47 45 44 46 48 46 43 42 42
45 44 42 41 40 38 37 36 36 35 35 34 34 33 31 31 31 30 30 29 30 30 31 32 32 31 31 30 30 30 31 32 33 34 34 35 36 37 38 40 41 43 45 47 48 50 52 53 54 54 55 56 58 60 61 62 63 63 62 63 64 63 62 62 61 61 60 60 58 56 56 57 57 58 58 56 54 52 49 46 45 47 49 48 45 45 46
44 43 41 39 38 36 36 35 34 33 33 32 31 30 29 29 29 28 28 28 29 29 28 28 28 27 27 26 26 27 29 30 32 33 34 36 37 37 39 40 41 43 45 47 49 51 53 54 55 56 57 59 60 62 63 64 64 63 63 64 64 64 64 63 63 63 62 61 59 58 57 57 57 58 59 59 57 52 49 47 47 47 49 49 48 49 51
43 41 39 38 37 36 35 34 33 32 31 29 28 28 28 27 27 27 27 27 27 26 25 25 25 25 24 24 24 24 26 27 29 31 32 33 35 36 38 39 41 42 44 46 48 50 51 53 54 56 57 58 60 61 62 63 62 63 64 64 63 63 63 63 63 62 61 60 59 58 58 58 58 58 59 61 58 51 47 47 47 47 48 49 49 50 51
41 40 38 37 36 35 34 32 31 30 29 28 27 27 27 26 26 27 26 25 25 25 25 25 25 24 24 25 24 25 26 27 28 30 31 32 34 36 38 39 41 42 43 45 46 48 49 50 51 52 54 55 57 58 59 59 60 61 62 61 59 60 61 61 62 62 60 60 60 60 60 60 59 59 60 61 58 53 49 48 48 47 48 49 50 50 50
39 38 37 36 35 33 32 31 30 29 28 27 26 26 26 25 26 26 26 26 26 27 26 25 25 25 25 26 26 26 26 27 28 30 31 33 35 36 38 39 40 41 41 42 43 45 46 47 48 49 51 52 54 56 56 57 58 58 58 57 57 59 60 61 61 61 61 62 63 63 63 62 61 61 61 61 59 56 53 50 48 48 48 49 51 51 50
38 37 35 34 33 32 31 30 29 28 27 26 25 25 24 24 24 24 25 26 27 28 27 26 26 26 26 26 26 26 26 27 29 30 31 33 34 34 35 36 36 37 38 39 40 42 43 44 46 47 48 50 51 52 52 52 53 53 54 55 55 58 59 60 61 62 63 64 64 65 64 62 63 63 63 62 60 56 53 49 46 48 49 49 51 52 50
36 35 34 33 32 31 31 29 28 27 26 25 24 23 23 23 23 23 24 26 28 28 27 26 26 26 26 25 25 25 26 27 28 28 29 30 30 31 31 32 32 33 34 35 36 37 38 39 41 43 43 44 45 45 45 45 47 48 49 49 50 53 55 56 58 61 63 63 62 62 61 61 64 66 65 63 60 55 52 48 45 47 50 50 50 51 51
35 34 33 33 32 31 30 28 27 26 25 24 23 22 22 23 22 23 24 26 27 27 26 26 25 24 23 23 23 24 24 25 25 26 26 27 28 28 29 29 29 29 29 30 31 32 33 35 37 38 38 38 39 39 39 40 42 43 44 43 45 49 49 49 52 56 58 58 58 59 59 61 65 67 64 61 58 55 53 51 47 46 49 51 50 51 52
35 34 33 32 31 30 28 27 27 26 24 23 22 23 24 24 23 23 24 25 25 25 25 24 22 21 21 21 22 22 22 23 24 25 25 26 25 25 24 24 24 24 26 27 28 29 32 33 33 34 34 34 33 34 35 36 37 38 39 40 42 44 42 42 46 49 52 54 55 56 58 61 64 66 64 61 58 55 54 54 51 48 49 51 51 52 52
35 34 32 31 30 29 28 27 26 25 23 23 23 25 26 25 25 25 24 24 23 23 22 21 20 20 20 20 20 21 22 22 23 23 22 22 21 21 20 20 21 23 24 25 25 26 28 29 29 29 30 28 28 29 30 31 32 33 34 36 38 38 37 39 43 46 48 50 51 53 57 59 62 65 65 62 58 56 55 55 54 51 50 50 52 52 52
34 33 32 30 29 29 27 26 25 24 23 24 25 27 28 27 26 25 24 23 22 21 20 19 19 19 19 19 20 20 21 20 20 19 18 18 18 18 18 18 19 19 19 20 22 22 22 23 24 25 24 23 23 24 25 26 27 28 29 31 32 33 35 39 42 42 42 45 48 51 53 56 59 63 64 62 59 57 56 57 56 54 52 51 51 52 53
33 32 31 30 29 28 26 25 24 24 24 26 28 29 28 27 26 24 23 22 21 20 19 19 19 18 18 18 18 18 18 17 16 15 15 15 15 15 14 15 15 15 14 15 17 17 16 17 19 19 18 18 19 20 20 21 22 23 24 26 28 30 33 35 37 37 39 44 49 51 52 54 58 61 62 61 59 57 57 57 58 57 56 54 52 52 53
33 32 31 30 29 27 25 25 24 25 26 29 30 30 29 27 25 23 22 22 21 20 19 18 17 17 17 16 16 15 14 13 13 12 12 12 11 11 11 11 10 10 9 10 11 12 12 12 12 12 12 13 15 16 17 17 18 19 21 22 24 27 29 31 33 35 39 44 47 48 51 53 56 58 60 59 56 55 56 57 58 58 57 56 55 54 54
32 31 30 29 28 26 25 25 25 27 29 31 31 31 29 27 25 24 23 22 20 19 18 17 16 15 15 15 14 12 11 11 10 9 8 8 7 7 7 6 6 5 5 5 6 6 7 7 7 8 9 9 11 12 13 14 15 16 17 19 21 23 26 28 31 34 38 41 43 45 48 50 52 55 57 55 53 53 55 57 57 58 57 56 56 56 56
32 31 30 28 27 26 26 26 27 30 32 33 33 32 29 27 26 25 23 21 20 18 17 15 14 15 14 13 12 10 10 9 8 6 5 4 4 3 2 2 2 2 2 3 3 3 3 3 4 4 5 6 6 7 9 10 12 14 15 16 18 20 22 25 28 31 35 38 40 41 44 46 49 51 53 52 50 50 52 54 55 56 56 56 56 56 57
31 30 29 28 27 27 27 28 30 33 34 34 33 31 29 27 26 24 22 20 18 16 15 14 14 14 13 12 10 9 8 7 6 4 4 3 2 2 2 2 3 3 4 4 4 4 4 3 2 1 1 2 2 3 5 7 8 10 12 13 15 17 19 22 25 28 31 34 37 38 40 42 44 46 48 49 48 47 48 50 52 53 54 55 56 56 58
31 30 29 28 27 28 29 31 34 36 36 35 33 31 28 27 25 23 22 19 17 15 14 15 15 14 13 11 9 8 7 5 4 4 4 4 4 4 5 5 6 6 6 6 6 6 5 5 4 4 3 2 2 2 2 3 5 6 8 10 12 14 16 19 21 24 27 30 32 34 36 38 40 42 44 45 45 44 44 46 48 49 51 53 54 55 57
31 29 29 28 29 29 31 34 36 37 37 34 32 30 28 26 24 23 20 18 15 15 16 16 16 14 12 10 8 7 6 5 4 4 4 5 5 5 6 7 8 8 8 8 8 8 8 7 7 7 7 6 5 4 3 2 2 3 4 6 8 10 13 15 17 20 22 25 27 28 30 32 34 36 38 39 40 41 41 42 45 47 49 50 52 54 56
30 30 29 29 30 31 33 36 38 38 37 34 32 29 27 25 23 21 19 16 15 16 17 17 15 13 11 10 8 6 5 5 4 4 5 5 6 6 7 8 9 9 10 10 10 10 10 11 10 10 9 9 8 6 5 4 3 3 2 3 4 6 8 11 13 16 18 21 23 25 27 29 31 33 34 36 37 38 40 41 43 45 47 49 51 53 55
30 30 30 31 32 33 35 38 39 39 37 34 31 28 26 24 22 20 17 16 16 18 18 17 15 13 12 10 8 7 5 5 4 5 5 6 7 8 9 10 10 11 11 11 11 11 12 12 12 11 11 10 9 8 7 6 5 5 3 2 2 3 4 6 8 10 13 15 18 20 22 25 28 30 32 34 36 38 39 41 43 45 48 50 52 54 55
31 31 32 33 33 34 37 39 40 39 36 33 31 28 26 23 21 18 17 16 18 19 18 16 15 14 12 11 9 8 6 5 4 4 5 6 8 8 9 10 11 12 13 14 13 13 13 13 13 12 12 12 11 9 8 8 7 6 5 3 2 0 2 3 5 7 9 11 13 15 17 20 22 24 27 29 32 34 36 39 41 44 47 49 51 53 55
32 32 34 34 34 35 38 40 40 39 36 34 31 28 25 23 20 18 18 18 20 19 18 16 15 14 13 12 10 9 7 6 4 4 5 6 7 8 9 10 10 11 12 13 14 14 15 15 15 14 14 13 12 10 9 9 8 7 6 5 4 3 2 2 3 5 6 8 10 12 14 16 18 20 22 24 27 29 32 34 37 40 43 45 48 50 52
33 34 35 34 35 37 40 41 41 39 36 32 30 27 24 22 20 19 19 20 21 19 18 17 16 15 13 12 11 9 8 6 5 4 4 4 5 6 8 8 9 10 11 11 12 13 13 14 14 15 15 15 14 13 12 11 9 8 6 5 4 3 1 1 2 4 5 7 9 10 12 14 16 18 20 22 24 26 28 30 32 35 37 40 43 45 47
34 35 35 35 36 39 41 42 40 38 35 32 29 26 23 21 20 20 21 22 21 20 19 18 17 16 14 12 10 9 8 7 5 4 3 3 4 5 6 7 8 9 9 10 10 10 11 11 11 12 12 13 13 14 14 14 13 12 10 9 7 6 4 3 3 3 4 6 7 9 11 13 14 16 18 20 22 24 26 28 29 31 33 36 38 40 41
35 35 35 36 38 41 42 42 40 37 34 31 29 25 23 22 21 22 23 23 22 21 20 19 18 16 14 12 10 9 8 7 6 5 4 3 3 4 5 6 6 7 8 9 9 9 9 9 9 9 9 10 10 10 10 10 11 11 11 11 11 10 10 10 9 9 9 9 10 11 12 13 15 16 17 19 21 22 24 26 27 29 31 33 35 36 37
36 36 36 37 40 42 43 42 39 36 33 31 28 25 24 23 22 23 24 23 22 21 21 20 18 16 14 12 10 9 8 6 5 5 4 3 3 3 4 4 5 6 7 7 8 9 9 9 9 8 8 8 7 7 7 7 7 7 7 7 7 7 8 8 9 9 10 11 12 13 14 16 17 19 21 22 24 25 25 26 27 28 29 31 32 33 35
36 36 37 39 41 43 43 41 38 35 33 30 27 25 24 24 24 25 25 24 23 22 21 20 18 16 14 12 10 9 7 6 5 3 3 2 2 3 3 4 5 6 6 7 7 8 8 9 9 9 8 8 7 7 6 6 5 5 4 4 5 5 5 5 6 6 7 8 10 11 12 13 15 17 20 23 25 27 29 30 31 31 32 33 33 33 33
37 37 38 40 43 44 43 40 37 35 32 29 27 26 25 25 26 26 25 24 23 23 21 20 18 16 14 13 11 9 7 6 4 3 2 1 1 2 3 4 4 5 6 7 7 8 8 8 9 9 10 9 9 8 8 7 6 5 5 5 5 5 6 6 6 7 7 8 9 10 11 12 13 15 17 20 23 26 28 30 32 33 34 35 35 35 36
38 38 39 42 43 43 42 39 36 34 31 29 27 26 26 27 27 27 25 24 24 23 21 20 19 17 15 13 11 9 8 6 4 3 2 1 1 2 3 4 5 6 6 7 8 8 8 9 9 9 10 10 10 10 10 9 8 7 7 6 6 6 7 7 8 9 9 9 10 11 12 13 14 15 17 19 21 24 26 28 30 32 34 36 37 37 38
38 39 41 42 43 42 40 38 35 33 30 29 28 27 27 28 28 27 25 24 24 23 22 21 20 18 16 14 12 10 8 7 5 4 3 3 3 3 4 5 5 6 7 8 8 9 9 9 10 10 10 11 12 12 12 11 11 10 9 9 9 9 9 9 9 10 10 11 12 13 13 14 15 16 17 19 21 23 25 26 28 30 32 34 36 37 38
39 40 42 43 43 41 39 37 35 32 31 29 29 28 28 29 29 27 25 25 25 24 23 22 20 19 17 15 13 11 10 8 7 6 5 4 5 5 5 6 7 7 8 8 9 10 10 10 11 11 11 12 13 13 13 13 13 13 12 12 11 11 11 11 11 11 12 13 14 14 15 15 15 16 18 19 21 22 24 26 27 28 30 32 34 36 37
42 43 43 43 42 40 38 36 34 33 31 30 29 29 30 30 29 27 26 26 26 25 23 22 21 19 17 15 14 12 11 10 8 8 7 6 7 7 7 8 8 9 9 10 10 11 12 12 12 12 13 13 14 15 15 15 15 15 14 14 14 14 14 14 14 14 14 15 16 16 16 16 17 17 18 20 21 23 24 25 26 27 29 31 32 34 35
43 44 44 43 41 40 38 36 34 33 32 31 30 30 31 30 29 27 27 27 26 25 23 22 21 19 18 16 15 13 12 11 10 9 9 8 9 9 9 10 10 11 11 12 12 12 13 14 14 14 15 15 16 16 17 17 17 17 17 16 16 16 16 16 16 16 17 17 18 19 19 19 19 19 20 21 22 24 25 26 27 28 29 30 32 33 34
43 43 43 42 40 38 37 35 34 33 32 31 31 30 31 31 29 28 27 27 27 25 23 21 20 19 18 17 16 15 14 13 12 11 11 10 11 11 11 12 13 13 13 14 14 14 15 15 16 16 16 17 18 18 19 19 19 19 19 18 18 19 19 19 18 19 19 20 21 21 22 22 22 22 23 23 24 25 26 27 28 29 30 31 32 33 34
44 43 43 41 40 38 36 35 34 33 33 32 31 31 32 32 30 29 28 28 27 26 24 22 21 20 19 18 18 17 16 15 14 13 13 12 13 13 13 14 15 15 15 15 16 16 17 17 18 18 18 19 20 20 21 21 21 20 20 20 20 21 21 21 21 21 22 23 23 24 25 25 26 26 26 27 27 27 28 28 29 30 30 31 32 32 34
43 42 41 40 38 37 36 35 34 34 33 32 31 31 31 31 30 29 28 27 27 26 25 23 21 20 19 19 19 18 17 16 15 15 14 14 15 15 15 16 17 17 17 17 18 18 19 19 20 20 20 21 22 22 22 22 22 22 22 22 22 22 23 23 23 23 24 25 26 27 28 29 29 30 30 30 30 30 30 30 30 31 31 31 32 33 34
43 41 40 39 37 36 35 34 34 34 32 30 29 29 30 31 31 30 28 27 26 26 25 24 22 21 20 20 19 19 18 17 17 16 16 16 16 17 17 18 19 19 19 20 20 20 21 21 22 22 22 23 23 23 23 23 23 23 23 23 23 24 24 24 25 25 26 27 28 29 31 32 32 33 33 33 33 33 33 33 32 33 32 32 32 33 34
42 41 40 38 36 35 35 34 34 33 31 29 29 30 31 32 31 30 29 27 26 25 25 24 23 22 22 21 20 19 19 18 18 18 17 18 18 19 20 20 21 21 21 22 22 23 23 23 23 24 24 24 24 24 24 24 24 24 24 24 24 25 25 26 26 26 27 29 30 31 33 34 35 35 36 36 36 36 36 35 35 35 34 34 34 34 34
42 41 39 37 35 35 35 34 33 32 31 30 30 30 30 29 30 30 29 28 27 26 25 24 24 23 23 22 21 20 20 19 19 19 19 19 20 21 22 22 23 23 23 24 25 25 25 25 25 25 25 25 25 25 25 25 24 24 24 25 25 26 26 27 27 27 28 30 31 33 35 37 37 38 38 39 39 39 39 39 38 37 37 36 35 35 35
42 40 38 36 35 35 34 34 33 33 32 31 30 29 28 28 29 29 28 28 27 26 25 24 24 24 23 23 22 22 22 21 21 21 21 22 22 23 23 24 24 25 25 26 27 27 26 26 26 26 25 25 25 25 25 25 25 25 25 26 26 27 27 28 28 28 29 31 32 34 37 38 39 40 41 42 42 43 42 42 41 40 40 39 38 37 37
41 39 38 36 35 35 34 33 33 33 32 31 29 28 27 27 27 28 28 28 27 26 26 25 25 24 24 24 24 24 23 23 23 23 23 24 24 25 25 26 26 26 27 28 28 28 27 27 26 26 26 26 26 26 26 26 26 26 26 26 27 28 28 28 29 29 30 32 34 36 38 40 41 42 43 44 45 45 45 44 44 43 43 42 41 40 39
41 39 37 36 34 34 33 33 33 33 32 31 30 29 28 28 28 28 27 27 26 26 26 26 26 25 25 25 25 25 25 24 24 24 25 26 26 26 27 27 27 28 28 29 29 29 28 27 27 27 27 27 27 27 27 27 26 26 27 27 28 28 29 29 29 30 31 33 35 37 39 41 43 44 45 46 46 47 46 46 46 45 45 45 44 42 41
Wind_Direction
185 185 187 188 189 190 192 193 195 196 198 200 204 207 210 212 214 217 219 222 224 226 228 229 230 232 233 233 233 234 234 235 236 237 237 238 239 240 241 241 242 243 244 245 245 246 248 249 249 248 249 250 250 251 252 253 253 255 257 257 258 258 258 259 260 262 264 266 269 272 271 270 269 270 272 274 276 277 277 276 273 269 265 262 259 258 256
185 186 187 188 190 191 192 193 195 196 198 201 203 206 209 211 213 215 217 220 222 225 226 227 229 230 232 232 233 234 234 234 235 236 237 237 237 238 239 240 241 242 243 244 244 245 247 249 249 249 249 250 251 251 251 252 252 252 253 254 255 256 258 259 261 262 264 266 269 270 269 269 269 268 270 272 274 273 272 269 265 263 260 257 253 247 246
184 184 185 186 188 190 191 193 194 195 197 200 203 205 208 210 212 214 216 218 220 223 225 226 226 228 229 230 231 232 233 234 235 235 236 236 236 237 238 239 240 241 242 243 244 244 245 247 248 248 248 249 250 250 250 250 251 251 252 254 255 256 257 259 260 261 263 265 266 266 266 266 266 267 269 271 270 269 268 264 258 254 253 256 256 244 237
183 183 183 185 186 187 189 191 192 193 196 199 202 205 208 210 212 214 216 218 220 222 225 226 226 227 228 229 230 232 233 234 235 236 236 237 237 238 239 239 240 241 242 243 243 243 243 245 246 247 247 247 248 249 249 249 250 251 252 254 255 255 257 258 260 261 263 264 264 264 264 264 265 267 270 270 269 266 263 259 256 252 249 251 252 247 244
180 182 183 185 186 187 189 190 192 193 196 198 202 205 209 211 213 215 217 219 221 223 225 226 228 229 231 232 233 234 235 236 237 238 238 239 239 239 240 240 241 241 242 242 242 242 243 243 243 244 245 246 247 248 248 248 249 250 252 253 254 255 256 257 259 260 261 262 263 263 263 264 266 268 268 268 267 264 260 257 252 247 246 245 243 248 252
178 180 184 186 187 189 190 191 193 194 196 199 202 206 210 213 215 217 220 222 224 226 227 229 231 232 234 235 236 236 237 238 239 240 241 241 241 241 241 241 241 240 241 241 241 241 240 240 241 242 243 244 245 246 246 246 247 248 250 251 252 253 253 254 255 257 258 259 260 262 263 264 265 265 265 266 265 262 259 254 243 236 241 243 242 247 252
177 180 184 187 188 190 191 192 193 194 197 200 203 207 211 214 217 219 222 226 227 229 230 231 232 234 235 236 237 238 239 240 241 242 242 242 242 242 240 239 239 238 238 238 237 237 237 238 239 239 239 241 243 245 246 246 247 248 249 251 252 252 252 253 253 255 256 257 258 260 262 263 262 262 261 262 261 258 255 251 241 234 237 241 242 245 248
179 182 185 187 188 190 191 192 194 196 199 202 206 209 213 217 220 222 223 225 228 229 231 232 233 234 236 237 239 240 241 242 242 243 242 241 240 238 237 236 235 234 233 234 234 235 236 237 238 238 239 240 242 244 246 247 247 248 249 250 251 251 252 253 254 254 255 256 257 258 260 260 260 259 256 255 257 255 251 248 244 238 237 239 239 241 244
181 184 186 187 189 191 192 194 196 199 202 205 208 212 215 218 222 224 224 224 226 228 231 233 235 237 239 241 241 242 241 241 240 239 238 236 234 232 231 230 229 228 228 229 232 234 236 238 240 241 241 241 243 243 245 246 247 248 248 249 250 251 253 254 255 255 256 257 258 257 257 257 256 255 253 251 252 252 249 246 245 242 239 240 240 239 241
183 185 187 189 191 192 194 196 198 201 204 207 211 214 216 218 222 224 224 225 226 229 233 236 239 241 242 242 241 239 237 234 232 231 230 229 228 227 227 226 226 227 228 229 229 232 235 237 240 241 242 243 244 244 245 246 247 247 248 249 251 252 253 254 255 256 256 257 258 257 254 253 251 251 251 249 248 249 248 245 244 242 240 240 240 240 242
184 187 189 191 192 193 194 197 200 202 206 208 211 214 216 218 220 221 222 225 229 233 237 239 239 239 238 237 235 232 230 228 226 226 225 225 225 227 227 227 227 228 230 231 231 232 234 236 238 240 241 242 244 245 246 247 248 249 250 251 252 253 254 254 255 255 255 256 255 253 251 250 249 250 251 250 247 247 247 247 246 244 240 238 237 239 241
186 188 190 190 191 193 195 198 200 202 206 208 211 214 217 219 221 223 225 230 234 237 238 237 235 233 231 230 228 226 225 224 225 225 226 227 228 230 231 232 233 233 235 236 237 237 238 239 240 242 243 244 246 247 249 250 251 252 252 252 253 253 254 254 254 254 254 253 251 249 247 246 246 247 249 250 248 247 247 249 248 244 240 237 236 237 240
187 188 189 189 191 192 194 196 199 202 205 208 211 215 217 219 222 227 231 234 236 234 231 230 228 226 224 223 221 221 221 223 226 228 230 232 233 235 237 238 238 239 240 241 242 243 244 245 245 247 248 248 249 250 251 252 253 253 252 251 251 251 251 251 251 251 250 249 248 247 246 245 244 245 247 249 249 248 248 249 247 243 239 236 235 237 240
186 187 188 189 190 191 192 195 199 203 206 209 211 214 217 221 225 230 232 230 226 222 220 221 221 220 219 219 219 219 221 224 227 230 233 235 237 238 240 242 243 244 246 247 248 249 250 250 251 251 251 252 252 252 252 252 252 251 250 250 249 248 248 247 247 246 246 245 245 245 245 245 245 245 246 249 250 249 248 248 246 244 239 236 235 237 239
185 186 186 188 189 190 193 197 200 203 205 207 210 215 220 225 229 229 226 219 213 211 213 215 216 217 219 220 221 223 226 229 232 235 237 239 241 243 245 247 248 250 251 252 253 254 254 254 254 254 254 253 253 252 251 251 251 251 251 250 249 248 247 246 245 245 244 243 243 243 244 244 245 246 246 248 250 250 250 249 245 241 238 236 235 236 237
184 185 186 187 189 192 195 198 200 201 203 206 211 218 224 227 227 223 217 210 205 206 210 213 215 217 220 223 226 230 233 237 239 242 243 245 246 248 250 251 253 254 255 256 256 257 257 257 256 255 254 254 253 253 252 253 253 252 251 250 248 247 246 245 244 243 242 241 240 241 242 243 245 246 246 247 248 248 249 248 241 234 235 236 235 235 237
184 185 186 188 191 194 196 197 197 199 203 208 214 220 222 222 219 213 207 204 203 205 210 214 217 221 225 229 233 236 239 241 244 246 248 251 253 254 256 257 258 258 258 258 258 258 257 257 257 257 256 255 255 255 255 254 254 253 252 250 248 247 246 244 243 242 241 241 240 240 241 241 243 245 245 245 245 245 245 245 238 229 231 234 234 235 236
185 186 187 189 192 194 195 195 197 200 205 211 215 216 214 211 207 202 199 201 203 207 211 217 222 226 230 234 236 238 241 245 248 252 255 258 260 261 261 262 262 262 262 261 261 260 260 258 258 258 258 258 258 258 257 254 252 251 250 249 247 246 245 243 242 242 241 241 240 239 239 239 240 243 243 243 243 241 240 241 237 230 230 233 234 236 237
185 186 188 190 192 193 194 195 198 202 207 211 211 207 203 200 197 194 195 197 202 207 212 217 222 226 229 232 236 241 246 251 255 258 260 261 262 264 265 266 266 266 265 264 262 261 260 259 259 259 260 259 258 257 256 253 251 249 247 246 245 244 243 241 241 240 239 238 236 235 236 237 239 242 242 242 241 239 238 239 238 234 232 233 234 236 237
185 187 189 190 191 193 194 196 200 205 208 209 204 198 195 193 191 191 192 195 200 205 210 214 218 222 227 234 241 248 253 257 259 260 261 263 264 266 267 268 267 265 264 263 261 259 258 260 259 258 257 256 254 252 251 251 249 247 244 242 243 242 240 237 237 236 235 235 234 232 233 233 236 239 241 241 240 239 238 239 240 239 237 235 235 236 238
185 187 188 189 191 193 196 199 203 207 207 203 196 192 191 190 189 190 192 195 199 204 207 212 217 224 232 240 247 252 255 257 258 260 262 265 267 268 269 267 266 265 263 262 260 259 259 261 261 258 256 254 251 249 247 246 246 245 242 240 239 238 235 233 234 234 233 232 231 230 231 232 233 236 239 240 240 238 237 238 239 240 239 237 236 236 238
186 187 188 190 192 195 198 201 205 206 203 196 190 188 188 188 188 188 191 195 199 203 207 214 222 230 238 244 248 250 252 253 256 260 263 266 267 267 267 266 267 268 266 264 265 264 262 261 261 260 259 256 253 250 246 244 242 241 239 237 235 235 234 233 232 230 229 228 228 227 228 229 231 234 237 239 239 237 237 237 239 239 239 238 238 238 239
186 187 189 191 193 196 199 202 205 202 196 189 185 185 185 185 185 188 192 197 200 204 211 219 228 236 241 243 244 244 246 250 255 258 260 263 264 265 265 266 268 271 270 271 274 272 266 263 265 267 267 262 257 253 247 242 239 236 234 233 232 232 232 231 228 225 226 228 229 230 229 229 230 234 237 239 238 237 237 237 238 239 239 239 239 239 239
187 188 189 191 194 197 200 203 203 197 190 185 182 183 183 184 185 189 195 200 203 209 217 225 232 236 237 236 235 237 240 244 247 249 251 255 257 259 261 264 269 274 278 283 285 280 278 282 283 278 272 263 255 250 246 240 235 231 228 228 228 228 229 228 226 224 225 228 230 231 232 232 232 234 238 240 239 237 237 238 239 240 241 241 240 240 240
187 189 190 193 196 199 201 202 198 191 185 182 182 182 183 184 188 193 198 202 207 215 223 228 231 230 228 227 226 228 232 234 233 231 231 233 235 240 252 272 296 320 330 334 337 337 333 322 299 278 267 257 248 244 240 236 232 227 224 222 222 223 224 224 224 223 225 228 231 232 233 234 235 237 240 243 242 240 239 240 240 240 241 242 241 241 241
188 190 192 195 198 200 201 198 192 186 182 181 182 183 184 186 191 196 200 204 211 218 223 226 225 222 218 218 218 219 220 217 209 200 191 174 151 134 109 77 54 41 35 31 32 32 28 21 7 335 280 251 237 223 219 220 221 221 220 217 216 218 221 223 224 224 226 229 232 233 235 236 238 239 242 245 246 245 243 243 243 242 241 242 242 242 241
189 192 194 197 199 199 198 194 188 183 181 182 182 183 185 189 194 199 203 208 213 218 219 218 216 212 211 210 208 205 200 191 176 164 152 132 115 108 99 86 74 65 55 49 48 48 49 52 55 56 60 66 81 114 169 190 200 209 214 214 213 214 217 221 225 227 229 233 235 237 238 240 241 242 244 247 249 249 248 246 245 245 244 243 243 243 242
191 194 196 198 198 197 194 190 186 182 181 182 183 184 186 192 197 201 205 209 213 215 215 212 207 204 203 200 194 187 178 160 141 130 120 107 98 92 87 82 78 73 67 61 56 52 51 53 55 58 60 60 60 66 82 109 147 173 191 204 210 213 215 219 224 227 231 236 240 242 244 246 248 249 250 251 253 254 253 252 250 249 248 246 245 244 244
194 196 197 197 196 194 192 188 184 182 181 183 184 185 189 194 199 204 207 209 209 209 208 205 202 199 195 187 179 172 159 137 114 101 91 82 75 69 66 64 64 63 64 64 63 59 56 53 49 49 52 55 56 60 67 74 85 107 140 179 199 211 216 219 223 227 230 234 238 241 244 246 248 250 250 251 252 252 252 251 250 250 249 248 247 246 246
196 196 195 195 194 192 190 187 183 182 182 184 184 187 191 196 201 205 206 206 206 205 201 199 197 193 185 176 169 160 146 124 101 84 73 64 58 53 49 47 46 45 46 49 52 55 58 59 57 54 53 51 48 50 57 63 70 76 82 105 163 205 220 225 229 232 235 238 240 242 244 246 247 248 249 250 250 250 249 249 248 248 247 246 246 245 245
197 194 193 192 192 190 188 186 183 182 183 184 185 189 193 198 203 204 203 203 203 201 197 195 193 186 176 167 161 151 138 122 101 81 67 58 51 46 42 39 37 35 33 32 33 36 41 46 51 54 57 57 55 54 54 54 55 54 53 53 62 149 226 233 237 240 242 244 246 248 249 250 251 252 252 253 253 253 253 252 252 251 251 250 249 248 248
194 192 191 191 190 189 186 184 183 183 184 185 186 189 193 198 202 202 200 199 199 197 194 192 187 179 171 164 157 148 138 126 109 85 66 58 52 47 42 38 35 33 31 28 26 26 27 28 30 33 37 43 49 56 62 65 64 61 54 46 37 22 348 299 276 269 264 261 260 260 260 259 259 259 259 259 258 258 257 256 256 255 255 255 254 254 253
191 190 190 190 188 187 185 184 184 184 185 186 187 190 195 200 202 200 197 195 195 194 192 188 181 176 171 164 156 149 143 134 123 102 74 56 50 47 45 42 38 35 32 28 26 26 25 24 24 23 22 22 24 28 35 41 48 55 60 63 63 58 32 317 287 280 277 275 274 272 272 271 270 270 269 268 267 266 264 263 262 261 260 259 258 257 257
190 190 190 188 187 185 184 184 185 185 185 186 188 192 197 201 201 199 195 192 191 192 189 184 179 176 172 166 160 153 148 139 130 120 97 66 48 41 41 42 41 39 35 31 29 27 26 25 25 24 22 19 17 17 17 18 17 18 20 22 22 20 14 1 332 301 289 283 280 277 275 274 273 273 272 272 271 271 270 270 269 268 267 266 264 263 262
190 189 189 187 185 184 184 185 185 185 186 187 190 194 198 200 199 197 194 191 189 189 186 182 179 177 173 170 165 158 151 144 135 126 112 89 62 44 34 31 34 36 35 34 31 28 26 25 24 23 23 22 20 18 16 13 11 10 9 7 4 1 358 354 349 342 334 327 321 315 308 303 298 294 290 287 283 280 278 277 275 273 272 272 271 269 267
190 189 188 186 184 183 184 186 186 186 186 189 193 196 199 199 198 195 192 191 190 188 185 182 180 178 176 175 171 165 158 152 144 133 120 103 80 56 39 27 22 23 25 26 27 27 25 23 22 19 18 16 16 16 15 10 7 5 3 1 358 355 349 345 341 336 331 328 325 322 318 316 313 311 308 304 301 298 295 292 289 286 283 281 279 276 274
189 188 187 185 184 184 185 186 186 186 188 192 196 198 198 198 196 193 192 191 189 186 184 183 182 181 180 180 179 175 169 163 156 146 131 111 83 58 43 29 18 14 12 11 12 15 16 18 18 17 14 9 4 2 1 359 357 353 346 339 333 328 324 320 315 310 307 305 305 305 306 307 308 309 307 305 303 301 300 299 297 296 294 292 289 287 284
188 187 186 185 184 185 186 186 186 187 190 194 197 198 198 197 195 193 192 191 188 185 184 185 185 184 184 186 186 185 181 177 174 171 163 129 57 36 30 23 15 8 4 2 1 0 0 3 6 8 9 8 4 357 349 343 340 337 332 325 317 308 301 296 292 288 286 286 286 288 291 294 296 298 299 299 298 297 297 297 297 297 296 296 295 294 292
186 186 185 185 185 186 186 186 186 188 192 195 197 198 198 197 194 193 193 190 187 185 186 188 189 189 189 190 192 193 193 193 195 200 212 249 313 341 356 3 5 2 357 354 352 351 350 350 351 353 355 358 359 356 351 343 336 329 324 320 316 310 304 299 294 291 289 288 287 286 286 288 291 295 298 299 298 298 297 296 296 296 296 296 296 296 295
185 185 185 185 186 186 186 187 188 191 194 197 198 198 198 197 195 195 193 190 187 188 189 191 193 194 194 194 197 199 202 205 210 218 236 262 288 313 331 341 347 351 350 348 345 344 343 342 342 341 342 344 346 347 347 344 340 333 327 320 316 314 312 310 306 302 300 299 296 293 291 290 292 296 299 301 302 301 300 298 297 296 295 295 296 296 297
184 184 185 186 187 187 187 188 190 193 196 197 198 199 198 197 196 196 194 190 190 191 193 194 196 197 198 199 202 205 210 215 221 230 245 264 283 300 316 326 333 339 341 341 340 338 337 336 335 334 334 335 336 337 339 339 338 336 332 327 321 318 316 315 315 314 313 311 307 302 298 296 297 300 303 305 306 305 304 302 299 297 296 296 296 297 297
183 184 185 186 187 187 188 190 192 194 196 197 198 198 198 197 197 196 194 193 193 194 195 198 199 200 202 204 207 212 218 223 230 239 252 267 282 295 307 317 324 329 332 333 333 332 331 329 328 328 328 329 330 330 331 332 333 333 332 329 325 321 319 319 319 320 321 320 317 312 309 307 307 308 310 312 313 312 310 308 305 303 300 299 298 298 298
182 183 185 187 188 189 190 191 193 195 196 197 198 198 198 198 198 197 196 196 196 197 198 200 202 204 206 209 213 218 223 229 236 245 256 268 280 291 301 311 317 321 324 326 327 327 326 324 323 323 324 325 325 325 325 326 328 329 329 329 326 324 323 322 322 323 324 324 323 321 320 319 317 317 317 318 319 318 317 316 314 311 308 306 304 303 302
182 183 185 188 189 190 191 192 194 195 197 198 199 199 199 199 199 199 198 198 199 200 201 202 204 207 211 214 218 223 228 234 241 249 258 268 279 288 297 306 312 316 319 320 320 322 322 320 319 319 321 322 321 321 321 322 324 325 326 326 326 324 323 323 324 325 326 326 326 326 327 327 326 325 324 324 324 323 323 322 320 317 314 311 309 307 305
182 184 186 189 190 191 192 194 195 196 197 199 200 200 200 200 201 201 201 201 202 203 205 206 209 211 215 219 224 228 233 239 245 253 261 269 278 287 295 302 307 311 314 315 315 318 318 317 316 317 318 318 318 317 318 319 321 323 323 323 323 323 323 324 324 326 327 327 328 329 331 332 331 331 330 329 328 328 327 326 325 322 319 315 313 311 309
184 186 188 190 192 193 195 196 196 197 199 200 201 201 202 203 203 204 204 205 205 207 209 211 214 217 221 225 229 233 237 243 248 255 262 271 279 286 293 299 304 307 309 310 312 313 314 314 313 315 316 315 315 314 315 316 318 320 320 320 320 321 322 323 324 325 326 328 329 331 332 333 333 333 332 331 331 331 331 330 328 325 322 319 317 315 313
185 187 189 192 194 196 197 197 198 199 201 202 202 202 204 205 206 207 208 208 209 211 213 216 219 223 227 231 234 237 240 245 250 256 264 272 280 286 292 298 302 304 306 307 309 310 311 312 312 313 313 312 312 312 313 314 315 317 317 317 317 318 320 321 323 325 326 327 329 331 332 333 333 333 333 333 333 333 332 331 330 328 326 323 321 320 318
186 189 191 194 196 198 199 199 200 201 202 202 203 204 206 207 208 210 211 212 213 214 217 219 222 226 231 234 237 240 243 247 253 260 267 274 280 286 292 297 300 302 303 305 307 308 310 310 311 310 310 310 310 310 311 312 313 314 314 314 315 316 318 320 322 324 325 326 328 330 331 332 333 333 334 334 334 334 333 333 332 331 329 326 325 323 321
188 191 193 196 198 200 201 201 202 203 203 204 205 206 207 209 211 212 214 215 217 218 220 222 225 229 233 236 239 242 246 251 257 263 270 276 281 287 292 296 298 300 301 303 305 307 308 308 308 308 308 308 309 309 310 311 311 312 312 312 313 315 317 319 321 322 323 325 327 329 330 331 332 333 334 334 334 334 334 333 333 332 330 329 327 325 324
191 193 195 197 199 201 203 203 204 205 206 207 207 208 209 210 213 214 216 218 219 221 223 226 228 232 236 239 243 247 251 255 260 266 272 277 282 287 291 294 296 298 300 302 303 305 306 306 306 306 306 306 307 308 308 309 310 310 310 310 311 313 315 317 319 320 322 324 326 327 328 330 331 333 333 334 334 334 334 333 333 333 332 331 329 328 327
192 195 197 199 200 202 204 205 206 208 209 209 210 211 212 213 215 217 218 220 221 223 226 229 231 235 238 242 246 250 254 259 263 268 273 278 282 286 290 292 294 296 299 300 302 303 303 304 304 304 305 305 306 307 307 308 308 308 308 309 310 312 314 315 317 319 321 323 324 326 328 329 331 331 332 333 333 333 333 333 333 333 333 332 331 330 329
194 196 199 201 202 203 205 206 208 210 211 212 213 214 214 216 217 220 221 222 224 226 229 232 234 237 241 245 248 253 257 261 266 270 274 278 282 286 288 291 293 295 297 299 300 301 301 302 302 303 304 305 305 306 306 306 306 306 307 308 309 311 312 314 316 318 320 321 323 325 327 328 329 330 331 331 332 332 333 333 333 333 333 332 331 330 330